Regional Weather Roundup
Issued by NWS Charleston, WV

Home | Current Version | Previous Version | Graphics & Text | Print | Product List | Glossary On
Versions: 1 2 3 4 5 6 7 8 9 10 11 12 13 14 15 16 17 18 19 20 21 22 23 24 25 26 27 28 29 30 31 32 33 34 35 36 37 38 39 40 41 42 43 44 45 46 47 48 49 50
324
ASUS41 KRLX 191310
RWRRLX
West Virginia Regional Weather Roundup
National Weather Service Charleston WV
900 AM EDT TUE SEP 19 2017

Note: "fair" indicates few or no clouds below 12,000 feet with no
significant weather and/or obstructions to visibility.

WVZ003-191400-
Northern Panhandle of West Virginia

CITY           SKY/WX    TMP DP  RH WIND       PRES   REMARKS
WHEELING       SUNNY     66  62  87 E6        30.03F
$$

WVZ009-191400-
Northwest West Virginia

CITY           SKY/WX    TMP DP  RH WIND       PRES   REMARKS
PARKERSBURG    FOG       63  63 100 CALM      30.04F VSB 1/8
$$

WVZ006-191400-
Western West Virginia

CITY           SKY/WX    TMP DP  RH WIND       PRES   REMARKS
HUNTINGTON     PTSUNNY   65  63  93 CALM      30.02R
$$

WVZ015-191400-
West Central West Virginia

CITY           SKY/WX    TMP DP  RH WIND       PRES   REMARKS
CHARLESTON     FOG       64  63  96 S3        30.02S VSB 1/2
$$

WVZ022-031-191400-
North Central West Virginia

CITY           SKY/WX    TMP DP  RH WIND       PRES   REMARKS
CLARKSBURG     SUNNY     65  61  87 CALM      30.05R
MORGANTOWN     SUNNY     67  61  81 E6        30.06S
$$

WVZ025-035-042-045-191400-
Southern West Virginia

CITY           SKY/WX    TMP DP  RH WIND       PRES   REMARKS
BECKLEY        SUNNY     65  61  87 S5        30.09S
LOGAN            N/A     64  64 100 CALM      30.04F
BLUEFIELD      SUNNY     63  60  90 CALM      30.11S
LEWISBURG      FOG       59  59  99 CALM      30.10S VSB<1/4
$$

WVZ047-191400-
Northern Mountains of West Virginia

CITY           SKY/WX    TMP DP  RH WIND       PRES   REMARKS
ELKINS         FOG       58  56  93 SE3       30.10S VSB 1/2
$$

WVZ052-191400-
Eastern Panhandle of West Virginia

CITY           SKY/WX    TMP DP  RH WIND       PRES   REMARKS
MARTINSBURG    CLOUDY    67  63  87 N6        30.05R FOG
PETERSBURG     CLOUDY    68  65  93 CALM      30.08R FOG
$$




USA.gov is the U.S. government's official web portal to all federal, state and local government web resources and services.